SCP
4 3 3 2 2 1 1 2 2 2 1 1 1 1 1 1 1 1 1 1 1 1 1 1 1 1 1 1 1 1 1 1 1 1 1 1 1 2 1 1 1 1 1
3 3 3 2 2 1 1 2 2 2 1 1 1 1 1 1 1 1 1 1 2 1 1 1 1 1 1 1 1 1 1 1 1 1 1 1 1 1 1 1 1 1 1
3 3 3 2 2 1 1 1 1 1 1 1 1 1 1 1 1 1 1 2 2 1 1 1 1 1 1 1 1 1 1 1 0 0 0 0 1 1 1 1 1 1 1
3 3 3 3 2 2 1 1 1 1 1 1 1 1 1 1 1 1 1 2 2 1 1 1 1 1 1 1 0 1 1 0 0 0 0 0 0 1 1 1 1 1 1
3 3 3 3 3 2 2 2 1 1 1 2 2 2 1 1 1 1 2 2 2 2 1 1 1 1 0 0 0 0 0 1 1 1 0 0 0 1 1 1 1 1 1
3 3 3 3 3 2 2 2 2 1 1 2 2 2 2 2 2 2 2 2 3 3 2 2 1 1 1 0 0 0 0 1 1 1 1 1 1 1 1 1 2 1 1
4 4 3 3 3 3 3 3 2 2 2 2 2 2 2 2 2 1 2 2 3 3 3 3 3 2 1 1 1 1 1 1 1 1 1 1 1 1 1 1 1 1 1
3 4 4 4 3 3 3 3 3 3 2 2 2 2 2 2 2 1 1 2 3 3 4 4 4 4 3 2 1 1 1 1 1 1 1 1 1 1 1 1 1 1 1
3 4 5 5 5 4 3 3 3 3 2 2 2 3 3 3 2 1 1 2 3 4 4 4 5 5 5 3 2 2 2 1 1 1 0 0 0 0 0 1 1 1 1
4 4 5 5 6 5 5 4 3 3 3 3 3 3 3 3 3 2 1 2 3 4 5 5 5 5 4 3 3 3 3 2 2 1 1 0 0 0 0 1 1 1 2
4 4 5 5 6 7 7 6 5 4 4 4 4 4 4 4 4 3 2 3 4 4 5 6 6 5 3 2 3 4 3 3 2 2 1 1 1 1 1 1 1 1 2
4 4 4 4 5 7 8 8 7 5 5 5 5 4 4 5 5 4 3 2 3 4 5 6 6 5 2 1 2 3 3 2 3 3 2 1 1 1 1 1 1 1 1
4 4 4 3 4 6 8 9 8 6 5 5 5 4 5 5 5 5 4 2 2 3 4 5 4 3 2 1 1 2 2 2 3 3 3 2 2 2 2 2 2 2 2
4 4 3 3 4 5 7 9 9 8 6 5 5 4 5 5 5 5 4 4 3 3 4 4 3 3 2 2 2 2 2 3 4 5 4 3 3 2 3 3 3 3 3
3 3 3 3 3 4 5 7 9 8 6 5 4 5 5 5 5 4 4 4 4 4 4 4 4 5 4 4 4 4 3 4 5 5 5 4 4 3 3 3 3 4 4
2 3 3 3 3 3 3 4 5 4 4 3 4 4 5 5 4 3 2 2 2 3 3 4 5 6 6 6 5 4 4 4 4 5 5 5 4 4 4 4 4 5 6
3 3 3 4 3 2 2 2 2 2 2 1 2 3 3 3 2 2 1 1 1 2 3 4 5 6 6 6 5 4 4 4 5 5 5 5 5 5 6 6 6 7 7
3 3 3 3 2 1 1 1 2 2 2 1 1 1 1 1 1 1 1 1 2 3 4 5 6 6 6 6 5 5 5 5 6 6 6 6 6 6 6 6 5 5 6
2 2 2 2 1 1 1 1 1 2 2 2 1 1 1 1 1 0 1 2 4 4 5 5 6 6 5 5 5 5 5 6 6 6 7 7 6 5 5 4 3 3 3
2 1 1 1 1 1 1 1 1 1 1 1 1 1 1 1 1 1 1 2 4 4 4 5 5 4 4 4 4 4 4 4 4 4 5 4 4 3 2 2 1 1 1
1 1 1 1 1 1 1 1 1 1 1 1 1 1 1 1 1 1 1 2 2 3 3 3 3 2 2 2 3 3 2 2 2 2 2 2 2 1 1 1 1 1 1
1 0 0 0 0 1 1 1 1 2 2 2 1 1 1 1 1 1 1 1 2 2 2 3 2 2 2 2 2 2 1 1 1 1 1 1 1 1 1 1 1 1 1
1 1 0 0 0 0 0 0 1 1 2 2 2 2 2 2 1 1 1 1 1 2 2 2 2 2 2 2 2 1 1 1 1 0 0 1 1 1 1 1 0 0 0
1 1 1 1 1 1 1 1 1 1 1 2 2 2 3 3 2 2 2 2 2 2 2 2 2 2 2 2 2 2 1 1 1 0 0 0 1 1 1 1 0 0 0
0 1 1 1 1 1 1 1 1 1 1 1 1 2 3 3 3 3 3 3 3 3 2 2 2 2 2 2 2 2 1 1 0 0 0 0 0 1 1 0 0 0 0
0 0 0 1 1 1 1 0 0 0 0 0 0 1 2 3 4 4 4 4 4 3 3 3 2 2 2 1 1 1 1 0 0 0 0 0 0 0 1 1 0 0 0
Wind_Speed
4 4 4 4 4 4 4 3 3 2 3 3 3 2 2 2 2 2 1 1 1 0 1 1 1 0 0 0 0 1 1 1 2 2 2 2 2 1 2 1 1 1 1
5 4 4 4 4 4 3 3 3 3 3 3 2 2 2 2 2 2 2 2 1 1 1 0 1 0 0 0 0 1 1 2 2 2 2 2 2 1 1 1 1 1 1
5 5 4 4 4 4 3 3 3 3 2 2 2 2 2 2 2 2 2 2 2 2 2 1 2 1 0 1 1 1 1 1 1 2 2 2 2 1 1 1 2 2 2
4 5 4 4 4 4 4 3 3 3 3 3 2 2 2 2 2 2 2 2 2 2 2 2 2 2 2 2 1 1 1 1 1 1 2 2 2 2 1 1 2 2 2
4 4 4 4 3 3 3 3 3 3 3 3 2 2 2 2 2 2 2 2 2 2 2 2 2 2 2 2 1 2 2 1 1 1 1 2 2 1 1 1 2 2 2
5 4 3 3 3 3 3 3 3 2 2 2 2 2 2 3 3 4 3 2 2 2 3 2 2 2 3 3 2 2 3 3 2 2 2 2 3 3 2 2 1 1 2
4 3 3 3 3 2 3 3 3 3 2 2 2 2 3 3 3 3 3 2 2 2 2 2 2 2 2 2 2 2 2 3 3 3 4 4 4 3 2 2 2 2 3
3 3 3 3 2 2 2 3 3 2 3 2 2 3 3 3 3 3 3 2 2 2 2 3 3 3 2 1 1 2 2 3 3 3 4 4 4 3 3 3 3 3 3
2 1 2 2 2 2 3 3 3 2 2 2 2 2 2 2 3 3 3 2 1 2 2 3 3 3 3 1 1 2 3 3 3 2 3 3 4 3 2 1 1 1 2
1 1 2 2 3 3 3 3 2 2 2 2 1 2 3 3 2 3 3 2 2 1 1 2 3 3 3 3 2 2 3 4 3 2 2 3 2 2 2 3 3 2 2
1 1 1 2 3 3 2 2 2 2 2 1 1 2 2 2 2 3 3 2 3 2 2 2 2 3 3 4 3 4 5 4 2 2 2 1 1 1 2 2 3 3 3
1 0 0 1 1 2 2 2 2 2 2 1 1 1 1 2 2 3 4 4 3 3 3 2 3 3 3 3 3 3 4 3 1 1 1 1 1 2 2 2 3 3 3
1 0 0 0 0 1 2 3 2 2 2 2 2 2 2 2 2 3 4 4 3 2 2 3 3 3 3 2 3 3 2 2 1 2 2 2 2 2 2 1 1 2 2
0 1 0 1 1 1 2 2 3 3 3 3 3 3 2 2 2 2 2 2 2 2 2 2 2 2 2 2 2 2 2 2 2 3 3 2 2 2 1 1 1 1 1
1 1 1 1 1 1 2 2 3 4 4 4 4 4 4 4 5 5 4 3 2 2 1 0 1 1 1 1 1 1 1 2 2 3 3 2 2 2 2 1 1 1 1
1 1 1 1 1 1 1 2 2 2 3 4 5 4 4 6 5 5 6 5 5 4 2 1 2 2 3 3 3 3 2 3 3 3 2 2 2 3 2 2 2 2 2
2 2 2 2 2 2 2 2 2 2 2 3 4 5 5 5 5 5 5 4 4 4 3 3 3 4 4 3 3 3 3 3 2 2 2 2 2 2 2 2 2 2 3
2 2 2 2 2 2 3 3 3 2 2 2 3 5 5 5 5 4 3 3 2 3 3 4 4 4 4 4 4 4 3 3 2 2 3 3 2 2 3 3 3 3 3
2 2 2 2 2 2 3 3 2 3 3 3 2 2 3 3 3 3 3 3 3 4 4 5 5 4 4 4 4 4 3 3 3 3 3 3 3 2 3 3 3 3 3
2 3 2 2 2 2 2 2 2 3 3 3 3 3 1 1 2 2 3 3 4 4 4 5 5 5 4 4 4 3 3 3 3 3 3 3 3 3 3 4 3 3 3
2 2 3 2 2 2 2 3 3 3 3 3 4 4 4 3 4 4 4 4 4 5 5 4 4 4 4 3 3 4 4 4 3 3 3 3 3 3 3 3 3 3 3
2 3 2 2 2 2 3 3 3 3 4 4 3 3 5 4 4 4 4 4 5 5 4 4 4 4 4 4 4 4 4 4 4 4 4 4 3 3 3 3 3 3 3
3 3 3 3 3 3 3 3 3 3 4 4 4 3 3 4 4 4 5 5 4 4 3 3 3 3 3 3 3 4 4 4 4 4 4 4 4 3 3 4 4 4 4
4 4 4 3 3 3 3 4 3 4 4 4 4 4 4 4 4 5 5 4 4 4 3 3 4 5 5 3 3 3 3 3 3 3 5 4 4 4 3 4 4 5 4
3 3 3 4 3 3 3 3 4 4 4 4 4 4 4 4 4 4 4 4 4 4 4 3 3 4 5 6 4 3 3 3 3 3 3 3 4 4 4 4 4 4 4
3 3 3 3 3 3 3 3 4 4 4 4 4 4 4 4 4 4 3 3 3 3 4 3 4 4 4 4 5 4 3 3 3 3 3 3 4 4 4 4 5 4 4
Wind_Direction
172 171 169 166 163 156 161 172 174 174 175 174 176 170 163 157 152 145 162 149 136 71 41 80 335 308 37 292 179 188 207 201 232 273 278 296 285 307 339 324 300 314 320
175 167 173 162 153 160 172 175 171 172 180 183 177 170 171 159 163 169 188 173 168 182 230 212 279 272 21 351 337 218 228 218 210 257 290 297 288 298 325 319 330 320 303
164 164 164 167 169 177 183 180 174 175 183 187 173 178 185 184 191 196 189 188 201 217 223 229 247 214 254 276 270 256 247 237 221 235 277 291 292 308 323 326 328 316 309
158 160 170 181 185 186 189 188 187 180 181 190 185 185 188 185 190 195 192 192 208 230 237 238 238 217 222 234 236 237 235 234 217 233 271 288 285 289 290 306 320 324 311
154 163 177 178 177 173 182 189 187 190 195 190 179 182 190 200 203 193 199 204 214 241 257 257 251 244 241 242 244 225 214 217 209 231 261 283 282 281 275 274 288 305 294
157 169 172 164 170 182 189 190 186 194 195 182 188 192 207 226 222 209 200 202 219 234 252 268 273 267 281 281 277 240 207 204 206 218 242 252 265 262 258 256 266 288 291
157 163 162 163 174 194 196 190 199 198 193 204 208 200 216 233 224 219 210 199 216 230 240 259 276 283 300 286 293 292 261 242 223 215 229 240 243 239 239 258 255 252 261
153 166 162 157 179 195 196 210 211 201 201 208 211 209 216 235 226 223 215 206 221 237 239 247 255 269 273 273 289 303 283 267 255 231 222 233 237 233 221 232 244 258 268
150 176 177 175 179 191 209 221 216 201 208 210 209 201 209 243 225 212 187 183 219 244 252 252 251 252 262 243 232 271 287 287 279 276 264 258 255 241 202 193 226 249 276
205 213 204 193 192 205 217 215 209 195 206 197 212 216 215 232 229 209 185 182 217 248 261 260 252 255 250 233 218 232 262 278 288 299 303 298 278 250 218 204 207 219 249
242 198 195 211 211 208 203 192 183 187 183 193 216 241 234 237 230 210 203 196 209 225 238 252 264 269 254 252 236 233 247 256 258 255 263 279 285 253 239 229 212 208 217
74 103 202 232 228 195 176 184 181 179 189 212 228 267 275 261 233 220 212 214 207 209 233 243 252 257 256 266 254 252 257 256 243 235 241 256 267 278 275 260 235 222 224
80 85 226 263 227 194 188 191 188 187 199 220 226 242 265 274 258 232 218 215 207 212 240 254 261 262 262 260 264 259 245 230 236 240 240 250 254 260 270 264 250 231 247
198 288 280 229 246 225 210 202 199 202 206 213 220 234 247 253 251 238 223 217 213 224 251 274 280 281 285 291 296 270 244 231 228 239 248 250 253 253 250 256 262 269 278
229 264 282 268 243 242 237 226 222 223 213 208 218 212 216 237 245 234 217 220 219 221 210 282 319 309 306 306 295 287 268 253 245 248 248 254 254 254 264 265 253 247 249
259 281 278 271 266 258 257 296 296 249 242 228 223 217 231 234 240 230 227 225 219 199 174 218 240 245 249 256 259 266 262 257 256 254 256 258 259 254 257 256 241 240 249
226 238 241 238 234 243 244 234 270 321 305 252 242 235 238 243 235 228 226 218 206 177 195 227 235 238 242 246 248 250 256 259 253 249 253 258 258 258 250 249 244 244 249
240 235 230 241 240 234 235 230 220 228 263 284 273 250 245 244 235 228 208 166 199 201 224 234 238 239 240 243 245 248 252 251 246 245 249 252 253 254 257 253 242 245 252
247 244 232 235 238 234 235 231 226 227 238 255 280 277 256 249 241 226 188 209 229 235 235 239 242 241 242 242 244 246 248 250 252 249 249 251 250 249 253 255 250 243 245
250 249 230 222 232 235 234 232 233 234 239 246 252 256 238 207 237 236 230 242 244 244 242 243 244 242 241 242 243 241 240 245 249 249 252 253 250 244 248 251 248 241 241
237 244 234 221 235 243 241 236 235 232 239 247 256 254 224 223 230 232 234 238 245 247 243 243 243 240 237 236 235 236 237 242 245 245 245 247 247 243 243 243 244 243 244
223 229 227 229 241 249 251 244 237 236 241 248 261 259 231 232 235 237 239 241 244 245 240 233 235 235 232 231 227 227 230 238 240 239 241 242 242 242 239 238 243 250 249
225 233 236 238 241 251 254 250 244 244 248 249 249 250 238 239 243 244 246 248 248 245 239 230 232 241 242 239 234 226 227 234 239 237 234 235 235 236 234 236 239 244 245
232 236 242 247 246 247 251 253 250 247 249 253 252 246 241 242 246 249 250 251 249 246 239 232 230 235 237 238 235 231 234 243 244 235 231 233 234 235 234 237 242 243 244
237 241 243 245 248 251 256 260 257 250 249 252 253 254 253 250 252 254 253 251 250 247 244 237 232 234 238 236 235 230 225 228 235 240 227 225 232 236 236 237 242 244 240
237 240 244 246 247 249 254 263 268 265 257 255 253 255 257 256 255 254 251 248 249 250 250 241 236 236 242 237 234 225 211 216 221 227 220 217 226 235 238 238 237 237 236